Theta_e
314 314 314 315 313 314 315 316 318 317 317 316 315 315 319 319 317 318 321 320 318 319 320 323 325 328 328 325 324 324 323 322 321 320 319 319 321 323 324 326 328 330 329 329
314 316 316 315 314 315 316 317 317 315 316 315 315 316 319 319 318 317 317 316 317 318 318 319 321 326 326 326 325 324 323 322 321 319 319 318 320 321 323 325 324 328 328 328
315 317 316 317 316 317 316 316 317 318 317 316 315 316 317 318 318 317 316 316 315 316 316 316 318 319 319 319 321 322 319 319 318 316 317 316 315 316 318 319 323 324 328 328
316 315 316 317 317 316 316 316 317 317 316 316 314 314 317 318 318 318 316 315 315 314 314 313 315 317 317 316 316 316 316 318 317 317 318 317 315 316 317 317 318 321 323 324
318 317 317 317 317 316 317 317 316 317 315 314 315 313 316 317 319 319 319 317 315 314 314 315 315 316 316 317 315 316 315 315 316 318 319 318 316 315 315 315 315 318 320 320
320 318 316 318 317 317 316 315 312 311 311 315 316 314 312 316 317 319 319 318 316 315 315 316 315 313 313 314 314 316 315 315 315 315 318 319 317 316 316 316 316 318 317 317
320 320 319 318 318 316 313 312 314 315 315 315 314 313 312 315 316 317 317 316 315 314 313 313 312 313 312 313 313 315 315 315 313 315 316 318 317 317 317 316 317 318 317 316
322 323 319 319 318 318 315 312 313 318 317 316 313 316 315 314 316 317 316 315 315 314 311 313 313 312 312 314 314 314 313 312 312 311 311 310 310 311 312 315 315 315 316 315
319 320 319 320 317 317 317 315 313 315 313 314 313 315 313 317 318 317 317 315 314 311 310 311 312 312 313 314 313 313 311 311 310 310 309 308 309 310 310 310 313 315 315 314
319 319 318 322 319 316 315 314 315 312 320 319 314 315 313 317 317 316 317 315 313 312 311 310 311 312 314 313 312 311 310 310 309 308 308 307 306 309 309 309 309 315 314 313
317 315 317 315 315 316 312 313 311 310 312 313 315 314 311 312 312 314 315 314 313 311 310 309 310 311 310 311 310 310 310 309 309 308 306 306 306 308 309 309 310 313 312 310
316 315 316 315 313 312 313 313 310 312 314 311 310 312 311 313 313 314 314 314 313 309 308 307 309 309 309 309 309 309 309 308 308 307 306 306 306 308 309 309 311 310 309 308
312 309 311 312 309 313 317 315 314 309 308 312 312 312 314 313 312 312 312 310 309 310 308 307 307 308 308 308 308 308 307 308 308 307 306 305 307 309 309 310 309 307 307 307
312 307 311 313 310 316 318 318 316 313 307 313 313 314 317 315 314 313 311 310 310 309 308 307 306 307 307 308 307 307 307 307 308 306 305 306 308 309 310 308 306 305 306 305
311 314 313 313 313 319 318 317 315 314 313 313 313 316 316 315 314 312 311 311 310 310 309 308 306 305 306 306 306 306 306 306 307 306 306 307 309 309 306 305 304 304 304 304
312 312 318 319 318 318 317 315 314 314 315 317 318 319 315 313 311 311 310 310 310 309 309 308 306 306 305 305 304 304 305 304 306 306 306 308 307 305 304 303 302 302 302 302
314 312 312 316 315 315 313 314 314 318 318 316 318 316 314 313 312 311 309 309 309 308 308 306 305 304 305 303 302 304 304 306 307 307 307 306 304 302 302 302 301 301 301 302
311 310 310 308 310 309 308 312 317 318 318 316 316 314 312 311 310 309 307 308 308 307 306 304 304 303 304 302 303 303 305 306 306 307 306 303 302 301 301 301 301 301 302 302
310 310 309 310 303 312 317 317 316 316 315 314 313 313 311 310 309 308 308 307 307 306 304 304 304 303 302 302 302 303 305 306 307 304 302 301 301 301 301 301 302 303 302 302
311 308 310 307 312 320 313 316 315 313 314 313 312 312 312 311 312 312 308 307 306 305 304 303 303 302 302 301 302 303 304 305 303 302 300 300 301 301 301 302 303 304 304 303
315 314 313 314 315 319 315 316 313 317 315 311 312 311 311 311 309 307 305 305 305 303 302 302 302 301 301 301 302 303 304 302 301 300 300 301 301 302 303 304 304 304 304 304
316 315 318 319 321 322 316 314 315 310 308 311 311 310 309 307 306 305 306 306 303 301 301 302 301 301 301 301 301 302 302 301 300 301 301 302 303 304 304 304 304 304 304 304
312 312 311 313 313 311 312 312 311 308 309 309 310 307 306 305 304 303 302 300 300 300 300 301 300 301 301 303 303 303 301 301 301 302 302 302 302 303 304 304 303 303 302 301
309 309 309 309 310 312 310 310 310 310 310 308 306 305 304 303 301 299 298 298 299 300 300 299 300 301 302 303 302 301 301 301 302 301 300 300 301 301 302 303 302 301 300 300
306 308 309 307 308 308 309 309 310 309 306 305 304 303 301 300 298 297 299 300 300 299 297 299 300 301 303 302 301 302 302 302 301 300 299 299 300 301 301 300 299 298 298 299
305 307 306 307 307 307 307 308 308 307 305 303 301 299 299 299 298 300 300 299 299 299 299 300 301 303 302 301 301 302 302 302 300 299 299 300 300 300 299 299 299 299 300 301
Wind_Speed
4 5 1 5 5 4 6 5 2 2 3 2 6 6 13 14 17 13 16 12 13 13 12 20 21 22 19 14 9 7 10 12 16 20 24 22 21 20 23 25 25 27 32 26
5 1 5 2 7 9 5 3 3 4 4 4 8 10 6 17 14 13 16 15 12 8 10 14 20 17 11 7 8 10 12 14 16 17 18 13 18 20 20 21 27 26 29 30
2 4 3 6 4 6 3 5 2 3 3 1 4 6 7 8 15 16 14 10 8 8 7 6 12 12 13 14 11 10 12 12 12 13 15 18 20 20 22 25 26 29 25 27
2 6 6 4 3 4 3 2 1 2 4 1 4 3 3 3 8 9 7 7 6 5 4 4 7 9 10 10 10 10 11 10 13 13 13 14 12 10 16 21 23 24 26 26
5 3 2 4 1 3 3 1 3 2 3 3 3 4 4 3 3 2 2 3 3 3 3 3 6 9 10 10 12 12 15 15 18 15 12 13 14 14 18 20 22 24 26 26
2 4 3 3 3 4 3 3 7 5 3 2 3 4 4 4 6 3 2 3 3 2 1 1 5 8 13 16 17 16 18 19 18 17 12 11 14 17 18 20 19 19 23 27
5 5 5 4 3 4 7 7 4 5 5 5 1 1 6 4 5 7 8 6 3 1 4 5 8 14 16 17 19 17 20 14 14 17 14 11 14 15 15 16 17 17 21 24
3 4 5 6 2 1 3 5 5 4 3 5 7 5 4 6 4 6 5 4 1 5 5 6 9 11 15 19 21 18 18 17 16 16 16 17 18 18 17 15 14 15 16 17
3 3 3 6 4 2 2 1 2 4 3 2 3 3 4 4 3 3 4 1 2 4 4 5 10 10 13 16 14 10 13 16 18 19 19 22 23 21 20 19 17 15 15 16
2 2 3 4 2 4 5 3 2 3 2 4 4 3 5 5 8 7 3 3 5 4 6 6 8 11 12 11 9 9 13 18 18 19 21 25 25 24 23 22 21 16 13 13
3 3 5 2 5 2 5 4 5 4 4 3 2 5 2 5 5 7 5 6 5 6 6 6 9 10 10 11 15 16 17 20 23 20 25 29 31 25 22 21 20 12 11 10
2 4 1 5 5 4 3 4 5 4 5 2 4 6 7 3 7 7 5 3 2 3 4 6 10 11 16 20 21 19 22 30 21 23 29 30 29 24 22 20 11 8 7 7
3 2 3 8 6 5 5 3 3 3 3 4 3 5 5 6 6 4 3 4 2 2 4 6 11 14 20 24 24 23 30 31 22 24 27 26 25 25 23 14 8 4 3 3
6 3 6 5 5 3 5 5 1 4 3 3 6 4 2 2 1 3 4 4 3 3 6 6 8 14 21 25 27 27 28 29 25 24 23 24 25 25 15 4 4 3 4 3
4 2 2 4 6 4 3 6 7 4 7 5 6 7 4 3 4 5 5 4 5 6 7 8 7 11 20 21 22 24 24 26 24 21 22 22 22 7 7 7 6 5 6 7
3 1 1 3 6 4 5 7 8 6 2 1 3 1 1 4 5 6 8 6 7 8 8 7 7 16 19 18 22 24 24 24 23 20 20 14 13 11 10 9 9 10 11 10
3 5 3 3 4 4 3 4 4 1 1 2 5 4 2 4 7 8 8 7 9 9 7 8 12 17 18 21 23 22 25 24 20 20 19 9 9 9 10 10 12 13 13 10
5 4 2 2 5 4 5 4 0 4 2 1 1 3 6 9 7 8 7 8 8 6 6 7 15 20 21 23 22 24 25 19 17 15 10 9 7 8 11 14 16 14 10 9
2 5 2 3 2 6 1 3 1 0 5 5 5 7 7 7 5 6 9 6 7 5 9 15 22 20 22 21 23 21 19 19 11 10 9 8 8 11 14 13 13 12 11 10
6 5 4 2 2 3 4 2 3 3 5 7 5 7 6 4 7 11 4 4 7 11 13 18 18 17 19 18 15 18 17 11 9 9 10 11 14 13 11 12 13 12 9 10
2 2 4 2 3 6 5 6 1 3 5 2 3 6 6 5 7 5 7 6 8 10 14 17 14 20 16 14 15 14 12 10 9 11 13 13 11 11 12 12 12 12 13 12
5 5 2 2 2 6 2 2 2 5 4 4 5 5 5 6 7 7 10 10 10 11 13 13 17 15 15 11 11 11 7 8 12 16 12 10 11 10 11 13 14 13 14 11
1 5 4 7 5 4 2 5 4 4 6 5 4 4 5 7 7 8 7 7 11 15 15 13 15 14 12 11 8 5 9 15 14 11 9 8 9 11 13 13 11 12 13 14
3 2 1 3 2 4 5 4 3 3 2 2 3 4 5 6 7 7 7 9 13 14 10 16 14 11 12 10 12 13 15 14 9 9 10 10 13 15 18 17 12 13 13 13
5 1 3 4 6 6 6 5 3 1 3 3 3 3 6 5 7 7 9 12 15 11 16 13 11 7 7 11 14 18 14 8 10 12 11 15 17 17 13 12 16 19 15 9
5 6 4 5 7 5 7 4 2 2 1 2 4 6 6 5 8 12 9 14 14 14 14 11 6 6 12 13 18 14 8 10 12 14 13 13 14 13 13 16 17 17 20 12
Wind_Direction
354 61 225 222 183 126 103 97 115 223 337 68 43 27 7 356 35 72 94 84 74 74 80 76 95 106 99 87 70 46 38 30 22 20 15 9 2 2 358 355 354 351 342 338
28 201 220 152 90 90 80 94 348 290 322 115 88 38 17 29 42 56 80 89 89 81 60 54 78 92 98 94 54 42 34 20 18 20 22 12 6 7 2 359 0 356 350 346
141 314 91 112 115 94 62 123 196 220 326 23 105 39 8 22 47 56 53 66 62 68 69 43 56 58 52 42 36 29 14 12 13 14 13 14 11 6 1 4 1 2 356 352
38 325 109 82 80 121 107 262 163 342 48 251 43 253 9 26 40 40 33 51 64 63 54 50 55 54 45 42 26 17 11 16 13 11 13 15 16 4 355 351 346 356 1 358
273 317 105 67 289 121 159 214 11 330 123 89 351 80 245 144 58 344 6 64 55 59 77 54 33 20 7 6 4 4 4 9 5 349 347 356 358 354 355 358 356 355 353 354
317 293 24 126 50 47 106 38 39 53 71 49 213 127 262 190 178 200 237 207 182 142 137 322 349 5 10 12 10 1 359 357 6 1 347 334 348 350 351 353 352 345 347 340
346 355 329 77 87 25 65 49 353 357 4 229 13 19 236 223 190 176 188 194 190 69 28 7 357 7 5 6 4 357 354 12 16 15 10 353 341 338 339 343 338 331 338 335
120 324 11 331 95 160 61 136 149 250 230 254 347 263 249 218 126 155 187 177 64 17 338 318 325 3 1 356 347 342 354 3 1 0 355 345 334 329 324 326 319 319 320 322
141 276 328 41 6 82 154 33 187 132 28 40 251 314 358 67 121 194 209 24 324 314 292 336 342 345 343 342 350 356 350 341 336 333 332 331 327 323 321 318 311 303 307 308
152 360 14 314 49 32 102 163 13 12 255 273 294 284 238 223 222 218 198 214 245 283 324 309 324 339 333 337 343 320 322 322 318 323 329 328 323 315 317 311 304 288 294 303
86 87 285 354 33 260 3 13 45 113 127 204 308 272 301 272 223 163 182 231 260 293 292 320 351 356 342 323 316 310 314 318 311 317 328 327 323 313 314 311 308 279 298 306
19 125 278 257 298 274 104 107 96 98 290 238 162 264 343 73 116 143 186 231 272 349 19 7 349 324 312 310 311 310 313 313 303 320 326 321 318 319 316 319 302 295 303 303
181 24 16 349 357 14 59 73 123 112 74 225 155 271 6 45 57 56 76 339 333 2 355 313 308 308 312 313 313 315 323 311 301 324 322 318 316 324 324 313 295 318 327 321
85 118 148 191 221 202 295 315 294 139 128 223 229 262 317 17 58 325 319 272 254 279 277 276 298 308 316 315 313 318 317 318 304 322 318 320 321 318 323 329 352 34 40 60
94 152 162 236 239 231 270 296 308 275 230 187 271 203 216 248 273 291 288 277 293 310 309 297 299 299 306 309 316 318 315 316 307 318 321 325 332 352 13 22 23 41 69 75
14 209 103 284 280 315 279 273 271 274 316 56 90 299 240 287 309 313 294 288 305 285 283 294 295 310 314 320 324 320 318 318 314 319 325 327 348 12 23 30 52 59 65 63
115 128 109 262 337 304 340 234 243 190 301 160 200 232 298 284 278 268 259 255 262 270 293 309 312 309 311 323 329 320 321 333 327 325 327 8 17 29 46 58 56 58 54 64
132 111 112 244 3 4 246 296 169 131 191 127 100 252 247 237 252 278 246 239 271 288 296 302 305 310 316 323 327 325 332 333 331 346 30 27 37 58 70 68 61 58 60 52
127 118 81 130 179 287 1 25 31 213 264 204 224 252 266 278 296 273 243 237 266 279 300 308 318 316 320 322 324 329 337 344 13 32 35 44 65 78 74 55 38 36 39 44
70 73 111 145 133 274 242 231 304 118 282 202 219 269 281 330 307 298 325 301 286 313 318 320 318 315 316 321 330 340 344 28 32 44 65 79 88 76 48 29 23 21 30 36
86 49 151 131 233 283 238 238 301 71 250 322 231 256 251 231 244 297 307 305 306 308 319 323 310 316 312 325 337 335 357 28 50 80 91 89 56 32 17 21 38 44 48 61
163 142 175 109 241 271 317 15 198 224 278 250 259 277 291 293 308 311 312 304 309 312 320 317 315 313 327 334 330 338 42 63 88 96 82 40 13 25 33 64 61 58 79 79
68 175 183 176 218 238 297 228 247 210 240 280 305 343 337 316 303 300 306 320 314 308 304 316 321 315 337 344 339 41 81 104 102 78 30 52 60 64 75 85 71 64 66 63
315 120 140 57 270 242 287 273 249 289 277 29 15 327 312 290 301 309 302 305 304 301 316 323 318 321 342 54 85 101 120 123 96 62 62 65 79 82 77 75 74 49 50 77
205 52 178 257 281 297 272 234 249 202 63 31 338 309 305 306 306 290 309 319 323 322 317 315 310 334 57 84 102 123 127 103 69 66 71 74 76 81 87 65 48 43 43 51
192 196 157 223 239 203 253 260 160 96 5 329 335 328 333 319 295 305 315 314 312 306 314 326 348 76 89 107 120 122 96 69 68 68 65 67 66 58 47 51 60 57 57 102